#timestamp,LO_Frequency,Hit,StdDev 
1629194415.2,286047000.9,N
1629194435.0,286046999.8,N
1629194435.9,286046999.8,N
1629194455.8,286047001.6,N
1629194475.7,286047004.4,Y
1629194495.5,286047004.3,P
1629194515.4,286047003.7,N
1629194535.2,286047003.9,N
1629194555.0,286047003.6,N
1629194555.9,286047003.6,N
1629194575.8,286047003.5,N
1629194595.6,286047003.2,N
1629194615.5,286047004.1,N
1629194635.3,286047003.1,N
1629194655.1,286047003.1,N
1629194675.9,286047003.3,N
1629194695.7,286047004.1,Y
1629194715.5,286047002.8,P
1629194735.4,286047002.7,P
1629194755.2,286047002.2,P
1629194775.1,286047001.5,Y
1629194776.0,286047001.5,P
1629194795.8,286046998.1,P
1629194815.6,286046998.7,N
1629194835.6,286046998.8,N
1629194855.4,286046998.8,N
1629194875.3,286046998.2,N
1629194895.1,286047000.8,N
1629194915.9,286047001.0,N
1629194935.7,286047000.7,N
1629194955.5,286047000.4,N
1629194975.4,286046999.9,N
1629194995.2,286047001.0,N
1629195015.0,286047000.0,N
1629195015.9,286047000.0,N
1629195035.8,286046999.7,N
1629195055.6,286046999.7,N
1629195075.4,286047002.7,N
1629195095.3,286047002.7,N
1629195115.1,286047002.4,N
1629195135.9,286047002.2,N
1629195155.7,286047004.0,N
1629195175.5,286047001.3,N
1629195195.4,286047004.1,N
1629195215.2,286047004.4,N
1629195235.1,286047003.8,N
1629195236.0,286047003.8,N
1629195255.8,286047004.2,N
1629195275.6,286047004.2,N
1629195295.5,286047001.7,N
1629195315.3,286047003.9,N
1629195335.1,286047003.8,N
1629195355.9,286047003.8,N
1629195375.7,286047005.5,N
1629195395.6,286047003.2,N
1629195415.4,286047006.0,Y
1629195435.2,286047002.4,P
1629195455.1,286047001.5,P
1629195456.0,286047001.5,P
1629195475.8,286047004.4,Y
1629195495.7,286047002.3,P
1629195515.5,286047002.7,P
1629195535.3,286046999.8,N
1629195555.2,286046999.8,N
1629195575.0,286046999.8,N
1629195575.9,286046999.8,N
1629195595.8,286047004.4,Y
1629195615.6,286047000.1,P
1629195635.4,286047002.8,P
1629195655.3,286047000.2,N
1629195675.1,286047000.1,N
1629195695.9,286046999.9,N
1629195715.7,286046999.9,N
1629195735.5,286047002.2,N
1629195755.4,286046999.9,N
1629195775.2,286047002.4,N
1629195795.0,286047002.6,N
1629195795.9,286047002.6,N
1629195815.8,286047001.5,N
1629195835.6,286047001.4,N
1629195855.5,286047001.7,N
1629195875.3,286047004.0,Y
1629195895.1,286047002.8,P
1629195915.9,286047001.5,N
1629195935.7,286047002.1,N
1629195955.5,286046999.7,N
1629195975.4,286047001.5,N
1629195995.2,286047001.7,N
1629196015.1,286047002.8,Y
1629196016.0,286047002.8,P
1629196035.8,286046998.2,N
1629196055.7,286046998.1,N
1629196075.5,286047000.7,N
1629196095.3,286047000.6,N
1629196115.2,286047000.5,N
1629196135.0,286047000.7,N
1629196135.9,286047000.7,N
1629196155.8,286046999.7,N
1629196175.6,286046999.8,N
1629196195.4,286047000.5,N
1629196215.3,286047000.4,N
1629196235.1,286046999.7,N
1629196255.8,286047002.8,N
1629196275.7,286046999.8,N
1629196295.5,286047001.6,N
1629196315.4,286047001.9,N
1629196335.2,286047001.7,N
1629196355.0,286047002.8,N
1629196356.0,286047002.8,N
1629196375.8,286047002.1,N
1629196395.6,286047002.7,N
1629196415.5,286047002.3,N
1629196435.3,286047004.3,Y
1629196455.1,286047001.6,P
1629196475.9,286047002.3,P
1629196495.7,286047001.7,P
1629196515.5,286047001.3,N
1629196535.4,286047002.2,Y
1629196555.2,286047001.0,P
1629196575.1,286047000.0,N
1629196576.0,286047000.0,N
1629196595.8,286047000.4,N
1629196615.6,286047000.6,N
1629196635.5,286047000.4,N
1629196655.3,286047000.5,N
1629196675.2,286047001.2,N
1629196695.9,286046998.4,Y
1629196715.7,286046999.2,P
1629196735.6,286046999.4,N
1629196755.4,286046999.1,N
1629196775.2,286046997.8,Y
1629196795.1,286046999.5,P
1629196796.0,286046999.5,P
1629196815.8,286046997.7,P
1629196835.7,286046997.5,Y
1629196855.5,286046996.8,P
1629196875.3,286046999.6,N
1629196895.2,286046998.3,N
1629196915.0,286047000.7,N
1629196915.9,286047000.7,N
1629196935.8,286046999.0,N
1629196955.6,286046999.6,N
1629196975.4,286046996.8,N
1629196995.3,286046997.1,N
1629197015.1,286046997.2,N
1629197035.8,286046997.3,N
1629197055.7,286046995.4,Y
1629197075.5,286046997.7,P
1629197095.4,286046996.8,P
1629197115.2,286046997.8,P
1629197135.0,286046997.2,Y
1629197135.9,286046997.2,P
1629197155.8,286046998.9,P
1629197175.6,286046998.5,N
1629197195.4,286047001.2,N
1629197215.3,286046998.8,N
1629197235.1,286046999.2,N
1629197255.9,286046999.5,N
1629197275.7,286046998.7,N
1629197295.5,286046996.6,Y
1629197315.4,286046999.3,P
1629197335.2,286046996.5,P
1629197355.1,286046999.0,N
1629197356.0,286046999.0,N
1629197375.8,286046998.4,N
1629197395.6,286046999.0,N
1629197415.5,286046999.6,N
1629197435.3,286046999.5,N
1629197455.1,286046998.8,N
1629197475.9,286046998.3,N
1629197495.7,286046999.1,N
1629197515.6,286046999.3,N
1629197535.4,286046999.5,N
1629197555.2,286046999.3,N
1629197575.1,286046996.8,Y
1629197576.0,286046996.8,P
1629197595.8,286046999.0,N
1629197615.7,286046998.7,N
1629197635.5,286046999.1,N
1629197655.3,286046999.1,N
1629197675.2,286046998.7,N
1629197695.0,286046998.7,N
1629197695.9,286046998.7,N
1629197715.7,286046998.7,N
1629197735.6,286046998.3,N
1629197755.4,286047000.8,N
1629197775.3,286046998.9,N
1629197795.1,286047001.2,N
1629197796.0,286047001.2,N
1629197815.8,286047000.6,N
1629197835.7,286047000.5,N
1629197855.5,286047000.7,N
1629197875.3,286047000.5,N
1629197895.2,286047000.2,N
1629197915.0,286047000.5,N
1629197915.9,286047000.5,N
1629197935.8,286047002.8,N
1629197955.6,286047002.4,N
1629197975.4,286047002.3,N
1629197995.3,286047002.6,N
